Regional Weather Roundup
Issued by NWS

Home | Current Version | Previous Version | Graphics & Text | Print | Product List | Glossary On
Versions: 1 2 3 4 5 6 7 8 9 10 11 12 13 14 15 16 17 18 19 20 21 22 23 24 25 26 27 28 29 30 31 32 33 34 35 36 37 38 39 40 41 42 43 44 45 46 47 48 49 50
000
ASUS44 KMEG 300110
RWRTN
TENNESSEE HOURLY STATE WEATHER ROUNDUP
NATIONAL WEATHER SERVICE MEMPHIS TN
800 PM CDT FRI AUG 29 2014

TNZ002-004-019-021-049-052-054-088>092-300200-
WEST TENNESSEE

CITY           SKY/WX    TMP DP  RH WIND       PRES   REMARKS
MEMPHIS INTL   MOCLDY    85  68  56 SW7       29.94R
NWS MEMPHIS      N/A     86 N/A N/A MISG        N/A
JACKSON        CLEAR     81  66  60 S5        29.96R
DYERSBURG      CLEAR     81  63  54 CALM      29.95R
UNION CITY     CLEAR     77  70  78 SE6       29.94R
PARIS          CLEAR     75  66  73 S5        29.98R
HUNTINGDON     CLEAR     76  67  73 CALM      29.97R
LEXINGTON      CLEAR     77  66  69 CALM      29.98R
SAVANNAH       CLEAR     75  72  88 CALM      29.98S
$$

TNZ008-025-027-028-033-062-065-066-300200-
NORTH MIDDLE TENNESSEE

CITY           SKY/WX    TMP DP  RH WIND       PRES   REMARKS
NASHVILLE      PTCLDY    83  61  47 SE5       30.00S
DICKSON        CLEAR     77  64  65 CALM      30.00S
PORTLAND       PTCLDY    79  63  57 SE3       30.00S
CLARKSVILLE    CLEAR     82  63  52 S5        29.98R
LEBANON        CLEAR     79  63  57 S5        30.00S
SMYRNA         PTCLDY    82  61  49 S3        30.01S
COOKEVILLE     CLEAR     73  68  83 SE3       30.05S
GALLATIN       CLEAR     82  65  56 CALM      30.01S
CROSSVILLE     PTCLDY    74  64  71 SW3       30.11R
$$

TNZ061-075-076-078-094-096-097-300200-
SOUTH MIDDLE TENNESSEE

CITY           SKY/WX    TMP DP  RH WIND       PRES   REMARKS
LEWISBURG      CLEAR     75  66  73 CALM      30.00F
FAYETTEVILLE   CLEAR     79  63  57 E5        30.03R
TULLAHOMA      CLEAR     75  64  69 CALM      30.05S
WINCHESTER     CLEAR     75  70  83 CALM      30.04S
MCMINNVILLE    CLEAR     73  68  83 CALM      30.05S
COLUMBIA         N/A     77  72  83 SE5       29.99R
SHELBYVILLE    CLEAR     79  70  73 SE3       30.03S
$$

TNZ017-018-042-046-047-300200-
NORTHEAST TENNESSEE

CITY           SKY/WX    TMP DP  RH WIND       PRES   REMARKS
TRI CITIES     PTCLDY    73  69  87 N3        30.12R
ELIZABETHTON   PTCLDY    77  66  69 NE5       30.13R
$$

TNZ012-013-036-069-073-074-300200-
CENTRAL EAST TENNESSEE

CITY           SKY/WX    TMP DP  RH WIND       PRES   REMARKS
KNOXVILLE      PTCLDY    82  63  52 CALM      30.05R
OAK RIDGE      CLEAR     79  68  69 CALM      30.07R
GATLINBURG     CLEAR     79  68  69 CALM      30.07R
MORRISTOWN     CLEAR     77  70  78 CALM      30.10R
$$

TNZ083-085-099-300200-
SOUTHEAST TENNESSEE

CITY           SKY/WX    TMP DP  RH WIND       PRES   REMARKS
CHATTANOOGA    MOCLDY    81  63  54 CALM      30.03R
$$

SKY/WX REPORTED AS FAIR MEANS FEW OR NO CLOUDS BELOW
12 THOUSAND FEET.



USA.gov is the U.S. government's official web portal to all federal, state and local government web resources and services.